CAPE
441 329 407 89 110 29 37 128 173 37 38 12 11 9 0 1 0 0 8 2 13 38 211 517 981 1416 1756 2424 2641 2583 2636 2416 2897 2869 2319 2008 2020 2090 2027 1901 1809 1739 1603 1615 1750 1823 1694 1664 1570
711 610 368 30 103 70 75 85 139 87 12 17 11 6 1 0 0 5 26 0 33 144 282 535 1147 1502 2020 2247 2558 2655 2299 2068 2778 2556 2283 1982 2079 2038 1853 1791 1666 1546 1583 1619 1625 1683 1748 1684 1614
573 103 67 64 103 109 13 148 114 86 135 72 11 0 0 4 0 0 4 52 103 199 457 699 1434 1933 2067 2157 2420 2501 2318 1879 2155 2047 1805 1795 1857 1783 1621 1525 1485 1586 1667 1730 1703 1625 1637 1725 1625
662 268 704 815 176 95 108 360 194 266 222 73 30 45 74 57 32 33 127 96 117 169 590 1289 1560 1401 1931 1946 2070 1776 1790 1711 2017 2273 1869 1758 1800 1572 1386 1392 1424 1578 1806 1843 1643 1622 1578 1622 1651
819 386 83 269 84 98 182 459 458 218 224 177 118 149 110 149 121 195 195 120 151 323 672 1084 1983 2069 1949 1950 1747 1902 1647 1603 2080 2210 1783 1715 1732 1428 1323 1290 1355 1487 1668 1847 1466 1500 1443 1552 1610
680 258 85 42 27 96 282 452 414 313 276 207 198 177 92 193 254 257 142 174 422 665 1079 1319 1731 2103 2105 1689 1653 1658 1488 1679 2148 2108 1914 1762 1760 1481 1285 1276 1293 1391 1635 1728 1634 1401 1552 1443 1409
42 5 13 24 54 70 398 438 391 402 295 256 175 166 215 295 344 149 243 352 426 856 1192 1363 1328 1183 1671 2226 1813 1689 1481 1645 1940 1936 2070 1940 1658 1537 1206 1215 1299 1419 1537 1550 1619 1387 1444 1459 1415
45 0 53 37 6 132 289 521 476 409 479 329 286 229 255 272 250 330 370 400 441 784 1025 1360 1409 1405 1713 2034 1995 1909 1697 1725 1867 1964 1861 1789 1769 1587 1460 1599 1679 1481 1370 1329 1436 1599 1641 1514 1444
311 0 52 0 1 165 345 525 599 572 523 352 664 280 229 248 305 457 473 422 478 524 913 1265 1331 1627 1799 1768 1653 2045 1826 1816 1885 1840 1867 2099 1313 1254 1619 1713 1789 2075 1521 1481 1449 1741 1858 1806 1772
562 0 24 8 4 121 130 363 492 659 580 713 528 390 291 272 341 394 493 478 424 595 703 1089 1304 1473 1428 1401 1318 1466 1443 1483 1387 1380 1298 1526 1053 944 1351 1689 2095 1773 1634 1752 1772 1901 2107 1634 1228
160 21 25 51 62 128 221 380 476 658 658 661 594 524 421 379 415 557 542 566 564 652 773 852 1021 1193 1154 1067 1305 1342 1179 1047 782 655 688 762 849 785 1196 906 1306 1301 1466 794 1063 1447 1032 1225 1079
36 23 17 61 73 99 258 420 487 448 417 504 835 664 538 528 503 656 630 668 693 697 877 851 856 921 906 784 1253 1053 902 729 330 293 647 796 939 669 564 866 864 857 1172 1143 1227 1269 1135 1140 916
0 0 13 57 88 75 126 212 444 417 423 581 867 821 621 605 528 565 615 670 709 789 906 871 903 925 801 859 615 578 840 630 381 420 589 980 1086 777 686 981 1027 988 899 1044 1022 1154 1023 1002 1291
0 0 3 12 29 79 50 25 187 369 551 749 900 877 780 690 498 476 569 690 762 793 902 923 906 964 769 1001 787 500 596 643 540 659 765 1028 952 762 714 1081 1103 1275 1269 1138 1181 1043 922 1208 1159
0 0 0 0 0 61 47 87 554 580 512 514 929 899 897 841 668 484 574 697 770 713 780 802 918 939 812 902 827 386 598 804 888 853 1027 1135 1137 1021 1353 1284 873 1326 1275 1513 1104 862 717 934 508
0 0 0 0 15 56 33 55 647 605 512 415 657 965 847 888 772 671 567 598 543 671 725 736 759 830 1006 841 653 1524 1110 732 686 1016 1118 1169 1043 1056 1170 1223 1380 1136 1029 988 836 759 630 323 8
0 0 0 0 2 46 39 6 165 642 577 529 396 423 623 637 566 709 626 466 368 559 653 730 676 704 1130 767 1188 1077 1051 961 846 886 1226 1084 1196 1411 1065 1177 1164 1248 1134 1075 897 655 311 51 1
0 0 0 0 0 32 46 14 3 637 607 548 519 412 376 312 333 276 538 515 392 587 769 808 668 839 1232 1068 1492 1023 751 803 1110 1158 1112 1280 1496 1506 1200 1021 1237 1244 1116 977 610 314 286 2 0
0 0 0 0 0 5 22 24 2 403 461 491 514 470 414 337 312 274 531 523 471 512 876 846 883 908 1412 1261 1308 1255 934 963 1168 1173 926 1242 1426 1327 1149 889 1310 1115 969 707 311 134 5 0 6
0 0 0 0 0 2 38 37 7 82 224 284 313 319 379 319 323 320 313 589 629 814 948 907 877 808 915 1057 1114 1251 1133 1092 1146 1285 1007 796 1064 1429 1277 1164 1073 1217 1024 975 365 149 0 0 25
0 0 0 0 0 17 21 29 6 1 22 91 156 172 210 164 175 278 293 402 590 815 881 900 902 899 893 965 1266 1395 1272 1420 1423 1421 1476 1669 1421 1443 1496 1165 969 1072 1129 787 438 31 0 0 16
0 0 0 0 0 0 6 2 14 20 3 0 45 97 137 109 66 98 226 200 344 612 786 784 1046 1132 1007 1045 1340 1309 1363 1360 1186 1286 1378 1623 1458 1467 1396 1088 930 1013 1054 671 513 12 8 0 0
0 0 0 0 0 1 0 0 0 15 0 0 1 60 62 60 40 38 124 174 220 469 621 667 988 1605 1376 1228 1204 1318 1187 1053 936 1109 1262 1390 1606 1437 1304 1122 961 921 789 628 206 14 15 9 1
0 0 0 0 0 0 0 0 0 0 1 0 22 33 37 67 27 1 58 98 111 340 666 676 700 1512 1604 1426 1285 1227 1173 1016 817 962 1132 1481 1453 1427 1277 1302 1275 992 532 331 41 7 4 53 28
0 0 0 0 0 0 0 0 0 0 0 0 1 16 21 85 54 20 48 65 101 220 631 803 803 1014 1456 1573 1468 1326 1162 1014 857 799 1123 1360 1570 1424 1556 1360 1256 942 645 313 34 30 30 10 52
0 0 0 0 0 0 0 0 0 0 0 0 17 11 22 77 68 73 65 121 165 208 637 1005 957 894 1280 1379 1421 1275 1219 1080 1094 1253 1117 1297 1299 1352 924 1392 1207 995 670 359 78 35 29 20 6
0 0 0 0 0 0 0 0 0 0 0 0 14 33 27 117 93 114 96 127 217 273 742 1128 1146 1035 1383 1332 1174 1434 1561 1377 1366 1516 1349 1451 1292 1114 937 1245 1113 799 508 224 128 110 89 81 19
0 0 0 0 0 0 0 0 0 0 0 0 16 28 28 124 129 163 110 118 212 249 834 1099 1329 1235 1398 1659 1519 1355 1317 1722 1744 1673 1475 1371 1229 1007 788 943 714 524 500 277 229 180 183 86 159
0 0 0 0 0 0 0 0 0 0 0 0 13 40 70 166 178 199 164 129 191 295 872 1297 1505 1379 1666 1753 1752 1796 1639 1340 1722 1921 1887 1556 1370 1157 805 751 598 533 490 380 328 317 264 214 33
0 0 0 0 0 0 0 0 0 0 0 0 0 115 205 247 146 209 201 173 220 418 903 1319 1849 1638 1771 2031 2039 2032 1939 1830 1633 1779 2167 2222 1720 1383 1203 959 764 675 602 521 380 353 346 292 75
CIN
-101 -61 -22 -45 -13 -15 -19 -46 -68 -41 -45 -84 -102 -104 -13 -23 -0 -0 -2 -10 -29 -27 -14 -3 -0 -0 -0 -0 -0 -0 -0 -0 -0 -0 -0 -1 -0 -0 -0 -0 -0 -0 -0 -0 -0 -0 -0 -0 -0
-64 -20 -28 -69 -41 -63 -18 -26 -31 -44 -83 -124 -109 -110 -60 -0 -0 -0 -26 -0 -40 -15 -2 -3 -1 -0 -0 -0 -0 -0 -0 -0 -0 -0 -0 -0 -0 -0 -0 -0 -0 -0 -0 -0 -0 -0 -0 -0 -7
-52 -189 -121 -30 -100 -96 -31 -13 -48 -108 -102 -80 -128 -0 -0 -0 -0 -51 -50 -53 -16 -1 -1 -1 -0 -0 -0 -0 -0 -0 -0 -0 -0 -0 -2 -5 -1 -0 -0 -0 -0 -0 -0 -0 -0 -0 -2 -1 -10
-42 -81 -0 -0 -49 -59 -33 -51 -12 -90 -63 -77 -176 -165 -72 -76 -162 -162 -65 -68 -43 -30 -3 -0 -0 -0 -0 -0 -0 -0 -0 -0 -0 -0 -2 -4 -0 -2 -9 -12 -6 -0 -0 -0 -0 -2 -9 -9 -9
-27 -37 -41 -12 -40 -26 -46 -115 -128 -79 -97 -108 -154 -138 -114 -27 -93 -89 -60 -70 -68 -30 -2 -0 -0 -0 -0 -0 -0 -0 -0 -3 -0 -0 -1 -2 -3 -11 -21 -21 -23 -14 -2 -0 -9 -19 -21 -18 -11
-64 -131 -81 -40 -45 -44 -76 -152 -113 -94 -124 -153 -155 -177 -134 -61 -85 -69 -82 -71 -54 -24 -0 -0 -0 -0 -0 -0 -0 -0 -9 -0 -0 -0 -0 -8 -6 -20 -31 -25 -25 -20 -8 -3 -4 -20 -21 -20 -11
-142 -120 -242 -57 -26 -55 -65 -93 -123 -135 -148 -140 -199 -183 -83 -30 -61 -91 -77 -68 -64 -22 -0 -0 -0 -0 -0 -0 -0 -1 -6 -0 -0 -0 -0 -5 -19 -25 -30 -28 -25 -22 -13 -10 -20 -35 -30 -21 -15
-357 -0 -228 -146 -72 -30 -101 -102 -135 -152 -116 -153 -162 -202 -159 -101 -78 -55 -44 -21 -71 -36 -12 -1 -0 -1 -1 -0 -0 -0 -0 -4 -4 -4 -11 -22 -30 -35 -32 -22 -23 -24 -25 -27 -33 -40 -29 -29 -21
-39 -30 -183 -36 -5 -28 -71 -101 -78 -99 -166 -123 -68 -205 -193 -143 -81 -53 -40 -18 -58 -59 -41 -13 -7 -1 -1 -2 -0 -0 -1 -6 -12 -25 -26 -32 -51 -52 -46 -42 -31 -26 -29 -36 -36 -37 -41 -26 -16
-70 -0 -119 -84 -25 -54 -60 -72 -123 -122 -109 -77 -150 -138 -150 -136 -108 -87 -68 -58 -101 -57 -56 -48 -21 -12 -12 -11 -23 -27 -34 -44 -54 -68 -68 -56 -82 -69 -70 -55 -21 -29 -33 -33 -34 -32 -32 -61 -38
-125 -104 -81 -83 -45 -30 -44 -79 -87 -140 -138 -189 -176 -165 -141 -121 -98 -78 -75 -127 -128 -100 -75 -79 -63 -51 -54 -57 -46 -50 -72 -93 -115 -126 -135 -115 -103 -83 -53 -43 -64 -58 -78 -25 -83 -47 -44 -43 -48
-188 -227 -51 -10 -51 -49 -33 -99 -157 -180 -138 -160 -196 -219 -178 -122 -110 -66 -68 -106 -52 -105 -92 -89 -95 -98 -89 -93 -77 -111 -132 -136 -171 -6 -25 -29 -20 -23 -49 -18 -79 -23 -37 -51 -42 -50 -29 -40 -22
-0 -0 -77 -32 -1 -18 -42 -58 -115 -98 -131 -139 -146 -153 -158 -136 -125 -84 -87 -88 -72 -109 -88 -93 -98 -107 -116 -100 -153 -164 -129 -133 -56 -12 -18 -43 -23 -18 -47 -31 -31 -14 -18 -32 -16 -47 -41 -44 -28
-0 -0 -14 -7 -18 -3 -6 -32 -65 -108 -119 -149 -144 -149 -99 -95 -87 -97 -75 -86 -92 -111 -111 -104 -99 -115 -121 -86 -122 -137 -124 -110 -8 -85 -116 -54 -32 -24 -35 -27 -44 -41 -28 -33 -32 -34 -48 -38 -36
-0 -0 -0 -0 -0 -37 -8 -72 -90 -120 -108 -135 -153 -122 -109 -84 -49 -90 -112 -94 -97 -118 -113 -135 -126 -104 -129 -89 -70 -161 -84 -14 -6 -28 -65 -31 -27 -31 -36 -32 -30 -29 -30 -36 -26 -14 -54 -53 -109
-0 -0 -0 -0 -63 -19 -14 -82 -125 -175 -113 -67 -126 -117 -93 -79 -78 -56 -72 -83 -112 -118 -112 -120 -135 -131 -69 -73 -94 -15 -23 -28 -37 -32 -46 -55 -57 -39 -49 -43 -25 -12 -24 -13 -20 -43 -37 -26 -65
-0 -0 -0 -0 -19 -16 -21 -15 -119 -194 -144 -69 -96 -115 -103 -94 -90 -64 -51 -116 -157 -172 -144 -168 -134 -161 -97 -67 -83 -22 -10 -45 -26 -21 -63 -49 -77 -38 -14 -44 -37 -34 -14 -19 -28 -20 -75 -155 -48
-0 -0 -0 -0 -0 -110 -39 -20 -83 -150 -117 -108 -132 -153 -103 -124 -108 -91 -75 -47 -127 -154 -187 -161 -124 -160 -103 -39 -42 -33 -22 -75 -39 -33 -52 -89 -58 -56 -29 -59 -53 -15 -19 -13 -23 -67 -93 -42 -0
-0 -0 -0 -0 -0 -62 -20 -33 -32 -184 -140 -154 -197 -187 -154 -140 -141 -139 -87 -33 -55 -46 -172 -162 -156 -140 -55 -76 -70 -42 -35 -73 -57 -22 -20 -28 -55 -68 -34 -58 -24 -24 -23 -35 -83 -99 -224 -0 -211
-0 -0 -0 -0 -0 -103 -42 -42 -20 -163 -173 -204 -203 -214 -195 -120 -139 -137 -178 -65 -59 -193 -180 -153 -158 -155 -97 -109 -82 -54 -61 -67 -47 -31 -47 -26 -144 -67 -46 -19 -38 -27 -24 -21 -63 -102 -0 -0 -235
-0 -0 -0 -0 -0 -140 -45 -88 -30 -23 -128 -123 -184 -205 -228 -196 -177 -157 -148 -167 -99 -189 -165 -152 -212 -195 -97 -63 -85 -48 -46 -24 -33 -22 -54 -50 -31 -80 -25 -24 -52 -40 -27 -45 -77 -101 -0 -0 -223
-0 -0 -0 -1 -0 -0 -54 -13 -76 -49 -31 -0 -168 -197 -263 -247 -234 -194 -158 -168 -203 -232 -195 -179 -238 -214 -118 -85 -102 -81 -56 -32 -35 -21 -21 -47 -101 -58 -47 -63 -71 -48 -56 -73 -87 -21 -219 -0 -0
-0 -0 -0 -0 -0 -10 -0 -0 -0 -83 -0 -0 -3 -196 -231 -252 -239 -210 -264 -203 -271 -252 -245 -182 -226 -195 -206 -175 -145 -96 -75 -65 -72 -48 -56 -39 -53 -65 -47 -53 -75 -77 -83 -88 -130 -225 -267 -274 -88
-0 -0 -0 -0 -2 -0 -0 -0 -0 -0 -31 -0 -69 -71 -69 -34 -188 -51 -268 -219 -181 -317 -288 -269 -277 -197 -188 -129 -102 -129 -101 -80 -120 -81 -46 -61 -64 -52 -25 -50 -67 -85 -132 -147 -215 -290 -241 -244 -268
-0 -0 -0 -0 -0 -0 -0 -0 -0 -0 -0 -0 -33 -63 -136 -29 -59 -60 -46 -251 -53 -382 -357 -321 -306 -254 -181 -147 -105 -102 -115 -100 -152 -133 -88 -83 -39 -43 -53 -69 -85 -108 -135 -181 -290 -276 -247 -305 -235
-0 -0 -0 -0 -0 -0 -0 -0 -0 -0 -0 -0 -43 -69 -116 -32 -54 -54 -42 -51 -53 -68 -429 -374 -360 -295 -237 -195 -190 -130 -108 -171 -143 -86 -125 -90 -87 -58 -178 -89 -99 -105 -139 -186 -299 -291 -297 -289 -260
-0 -0 -0 -0 -0 -0 -0 -0 -0 -0 -0 -0 -59 -52 -75 -48 -52 -60 -71 -76 -47 -245 -488 -461 -409 -342 -282 -248 -224 -170 -159 -133 -130 -73 -87 -47 -82 -90 -130 -114 -107 -139 -188 -218 -325 -242 -250 -266 -253
-0 -0 -0 -0 -0 -0 -0 -0 -0 -0 -0 -0 -107 -94 -78 -43 -66 -65 -60 -83 -367 -163 -491 -464 -450 -407 -363 -275 -254 -236 -204 -143 -97 -70 -80 -92 -106 -130 -153 -163 -178 -204 -188 -237 -272 -292 -257 -302 -252
-0 -0 -0 -0 -0 -0 -0 -0 -0 -0 -0 -0 -123 -136 -103 -77 -84 -71 -85 -100 -102 -339 -484 -482 -432 -391 -362 -312 -264 -211 -202 -215 -156 -133 -95 -116 -97 -102 -136 -151 -205 -194 -211 -150 -326 -283 -253 -232 -286
-0 -0 -0 -0 -0 -0 -0 -0 -0 -0 -0 -0 -0 -82 -61 -75 -89 -51 -105 -75 -49 -409 -498 -494 -451 -406 -383 -332 -270 -230 -198 -191 -191 -187 -126 -85 -108 -116 -114 -116 -232 -203 -124 -151 -146 -301 -260 -259 -311
Wind_Speed
7 4 3 nan 16 nan nan 10 9 nan nan nan nan nan nan nan nan nan nan nan nan nan 11 8 8 6 5 6 6 7 9 10 8 8 7 8 10 10 9 7 5 5 3 4 5 5 5 5 6
2 12 19 nan 15 nan nan nan 15 nan nan nan nan nan nan nan nan nan nan nan nan 10 13 9 7 7 6 7 7 8 10 10 8 7 7 10 10 9 8 7 6 3 2 2 4 6 5 4 2
5 4 nan nan 20 18 nan 10 6 nan 14 nan nan nan nan nan nan nan nan nan 8 10 12 11 9 8 9 9 9 8 9 9 8 9 11 10 9 8 6 5 4 3 1 1 4 4 3 3 3
8 14 12 23 30 nan 9 13 13 17 8 nan nan nan nan nan nan nan 9 nan 9 10 10 10 10 9 8 8 8 8 8 8 8 10 9 8 8 8 7 5 4 4 3 1 1 1 1 2 3
9 16 nan 19 nan nan 18 17 21 20 9 11 8 4 1 2 2 6 7 8 8 8 8 7 9 8 7 7 7 7 8 9 9 9 9 9 8 8 6 5 6 6 4 3 4 5 2 2 4
5 6 nan nan nan nan 20 23 18 19 18 18 12 3 nan 8 6 6 5 8 11 10 7 7 10 9 9 10 9 8 9 9 9 9 11 10 10 9 9 9 9 7 7 6 5 4 3 3 3
nan nan nan nan nan nan 28 29 24 20 28 11 13 4 6 9 5 4 4 7 12 11 6 6 8 11 11 9 11 12 11 10 12 13 12 13 14 14 15 13 12 12 9 8 9 8 8 6 7
nan nan nan nan nan 14 27 23 25 33 16 19 16 6 9 12 10 6 7 11 14 10 5 7 8 9 9 11 13 13 13 15 15 16 16 16 16 17 17 17 18 17 16 14 10 13 12 11 11
3 nan nan nan nan 17 29 25 26 17 23 16 7 10 17 14 11 11 9 11 11 7 5 8 10 10 10 9 10 11 14 17 19 21 22 21 17 22 22 23 23 23 21 19 15 16 16 14 15
13 nan nan nan nan 38 42 33 33 25 28 9 17 20 17 12 10 14 15 16 12 7 8 8 10 11 10 11 12 9 12 12 15 16 17 17 17 20 21 23 24 22 19 19 16 14 13 13 14
12 nan nan nan nan 36 44 42 25 42 27 29 32 27 23 17 8 10 17 19 12 8 7 9 11 12 11 12 11 11 13 14 14 18 17 14 15 13 14 14 15 14 16 15 14 12 9 11 14
nan nan nan nan nan nan 37 46 31 39 18 28 34 37 29 20 11 9 12 13 9 6 9 11 12 12 13 12 12 12 12 13 14 14 14 14 14 13 15 14 13 11 14 15 14 12 12 11 12
nan nan nan nan nan nan 31 34 46 27 39 30 32 32 28 20 16 11 12 11 6 7 10 12 12 12 13 12 12 10 11 10 13 12 12 12 13 11 10 11 11 12 13 15 13 13 11 9 9
nan nan nan nan nan nan nan nan 31 30 33 33 37 33 27 18 13 8 7 9 7 10 12 12 14 13 13 11 9 11 9 9 12 13 11 11 7 7 9 10 9 11 10 11 11 12 10 10 9
nan nan nan nan nan nan nan nan 31 36 44 36 37 31 30 19 9 11 11 7 6 10 10 13 13 12 13 12 11 11 10 10 11 11 8 7 6 8 9 7 5 8 11 11 11 11 10 8 8
nan nan nan nan nan nan nan nan 36 40 35 42 43 35 28 19 13 9 11 9 8 7 8 10 10 12 9 10 10 10 7 4 5 4 4 5 6 8 9 8 9 11 12 13 12 10 11 12 nan
nan nan nan nan nan nan nan nan 30 33 34 33 33 38 32 21 12 12 14 10 8 7 6 6 8 10 9 6 7 8 6 4 4 3 3 7 9 10 9 10 11 14 14 13 12 12 12 nan nan
nan nan nan nan nan nan nan nan nan 39 39 39 28 25 23 20 15 5 13 10 5 6 6 9 6 7 5 3 3 5 5 6 3 2 5 8 8 11 11 11 13 16 15 13 12 13 11 nan nan
nan nan nan nan nan nan nan nan nan 40 33 29 30 25 20 21 18 6 12 10 3 6 8 10 7 5 4 2 2 5 5 6 4 2 4 6 8 9 11 13 17 17 16 14 13 13 nan nan nan
nan nan nan nan nan nan nan nan nan nan 31 31 24 26 21 19 17 12 8 12 8 10 10 10 11 8 6 4 3 3 3 5 6 3 3 6 9 12 15 16 16 16 14 15 15 14 nan nan nan
nan nan nan nan nan nan nan nan nan nan nan nan 21 26 19 20 19 19 17 14 15 11 11 10 10 13 11 8 6 6 9 9 7 4 4 5 12 15 17 16 14 12 13 15 15 nan nan nan nan
nan nan nan nan nan nan nan nan nan nan nan nan nan nan 24 18 nan nan 21 21 22 22 19 16 11 13 13 12 9 8 6 6 5 7 7 7 13 18 15 13 12 12 12 14 13 nan nan nan nan
nan nan nan nan nan nan nan nan nan nan nan nan nan nan nan nan nan nan 23 24 23 22 21 21 18 15 14 15 13 10 9 8 9 11 12 12 16 16 12 10 9 10 12 11 16 nan nan nan nan
nan nan nan nan nan nan nan nan nan nan nan nan nan nan nan nan nan nan nan nan 21 21 22 21 21 18 18 19 18 17 14 11 12 13 14 13 15 11 10 8 8 10 12 16 nan nan nan nan nan
nan nan nan nan nan nan nan nan nan nan nan nan nan nan nan nan nan nan nan nan 22 23 24 23 23 20 20 18 20 20 18 16 14 14 14 15 12 7 6 8 9 9 12 17 nan nan nan nan nan
nan nan nan nan nan nan nan nan nan nan nan nan nan nan nan nan nan nan nan 18 23 25 26 26 24 22 21 19 19 22 22 18 17 15 15 13 8 5 6 9 10 10 15 17 nan nan nan nan nan
nan nan nan nan nan nan nan nan nan nan nan nan nan nan nan 28 nan 33 nan 26 25 25 31 27 24 22 21 20 19 19 23 20 20 17 15 10 5 2 5 11 10 12 13 17 18 19 nan nan nan
nan nan nan nan nan nan nan nan nan nan nan nan nan nan nan 33 31 33 37 25 27 23 28 30 29 27 24 22 18 16 18 17 17 13 11 6 1 2 8 8 11 12 15 16 18 19 22 nan 26
nan nan nan nan nan nan nan nan nan nan nan nan nan nan nan 32 29 26 32 29 26 20 23 28 28 27 25 21 18 16 15 13 8 5 7 3 2 8 10 11 14 15 13 17 21 25 25 26 nan
nan nan nan nan nan nan nan nan nan nan nan nan nan 12 16 24 28 26 28 25 24 20 21 28 26 24 23 22 19 18 14 9 4 4 7 3 7 9 12 12 14 15 18 19 26 32 26 32 nan
Wind_Direction
357 343 255 nan 120 nan nan 62 99 nan nan nan nan nan nan nan nan nan nan nan nan nan 77 59 17 354 323 294 299 295 285 278 280 284 311 317 323 339 320 330 329 319 268 199 186 181 165 147 118
14 8 129 nan 102 nan nan nan 75 nan nan nan nan nan nan nan nan nan nan nan nan 69 78 77 32 3 329 323 315 290 283 287 285 299 320 321 334 333 322 323 318 308 285 196 197 195 174 142 115
276 333 nan nan 106 55 nan 71 48 nan 342 nan nan nan nan nan nan nan nan nan 65 82 86 58 18 3 347 322 294 285 288 294 300 326 323 333 339 339 350 341 326 319 339 209 213 204 175 174 182
261 95 84 77 80 nan 74 53 344 359 1 nan nan nan nan nan nan nan 39 nan 54 48 63 33 11 356 333 307 301 308 303 307 324 328 333 342 345 360 3 5 3 10 14 346 276 343 105 237 235
4 58 nan 75 nan nan 22 357 22 9 360 302 318 333 237 181 127 17 38 47 39 38 56 45 21 5 344 338 337 331 326 335 349 342 351 5 6 15 26 31 24 28 27 44 50 47 38 304 267
24 78 nan nan nan nan 11 8 350 340 321 308 283 342 nan 304 0 24 44 25 10 18 42 53 19 18 8 2 1 354 1 8 14 24 34 38 29 34 50 56 53 42 27 34 43 49 41 30 320
nan nan nan nan nan nan 355 353 345 327 328 328 325 320 353 340 30 355 355 2 3 360 54 70 62 43 20 24 28 24 24 36 40 47 53 49 48 58 65 67 69 70 57 37 37 38 38 21 342
nan nan nan nan nan 343 1 3 348 338 331 314 323 8 13 352 6 328 328 346 355 358 50 90 99 101 95 82 39 39 41 47 49 54 59 62 62 66 73 73 78 82 81 75 67 61 61 53 40
155 nan nan nan nan 335 351 359 2 356 320 347 8 327 343 343 338 330 321 339 348 1 38 95 108 105 98 98 73 45 42 52 56 65 70 73 83 84 79 77 75 78 77 75 68 70 70 63 41
154 nan nan nan nan 4 348 349 352 351 353 337 285 301 316 335 339 335 332 338 346 5 59 76 87 85 90 86 93 85 76 83 85 90 82 86 86 81 80 77 73 72 72 74 70 57 60 80 54
128 nan nan nan nan 352 341 348 351 356 6 348 330 329 328 324 327 339 332 332 347 30 82 66 68 71 77 91 102 98 91 89 90 91 92 78 88 80 88 80 76 68 62 64 61 57 32 43 37
nan nan nan nan nan nan 345 342 339 352 2 346 346 337 328 333 340 354 337 336 359 50 63 53 58 66 77 98 90 83 88 92 90 84 79 86 83 80 76 67 56 57 50 45 44 35 40 21 35
nan nan nan nan nan nan 326 336 336 347 338 344 346 343 336 331 348 15 4 355 13 59 60 54 58 62 70 77 89 104 89 97 96 88 70 72 75 70 65 58 46 43 36 27 24 20 15 27 27
nan nan nan nan nan nan nan nan 313 328 336 348 347 354 349 342 350 16 17 16 51 45 52 50 52 55 64 73 85 84 89 92 86 89 76 58 64 48 45 44 31 40 32 15 359 359 355 14 11
nan nan nan nan nan nan nan nan 327 324 339 351 349 359 350 358 3 359 35 61 76 72 56 46 43 55 56 61 65 85 82 75 78 76 68 46 31 28 30 24 28 29 20 359 357 342 342 347 357
nan nan nan nan nan nan nan nan 341 333 337 354 349 358 358 13 33 27 49 57 80 83 63 56 57 48 59 68 71 94 94 79 94 69 64 18 31 28 29 7 5 1 349 347 345 344 331 335 nan
nan nan nan nan nan nan nan nan 338 346 342 354 350 348 356 10 49 49 54 61 62 67 69 52 49 50 66 90 86 93 102 130 120 129 66 24 28 17 9 3 7 346 338 327 329 329 329 nan nan
nan nan nan nan nan nan nan nan nan 353 9 12 3 348 355 6 38 31 48 61 50 48 24 28 28 17 52 71 125 144 155 134 150 75 34 18 6 8 1 353 351 339 332 323 321 316 315 nan nan
nan nan nan nan nan nan nan nan nan 337 352 4 7 358 360 11 15 2 21 42 57 31 5 7 10 8 352 194 202 178 159 155 182 153 75 348 352 356 345 341 333 335 335 342 331 314 nan nan nan
nan nan nan nan nan nan nan nan nan nan 343 353 359 359 358 27 9 9 4 13 359 358 5 347 354 351 7 2 4 175 183 165 198 230 22 8 346 345 334 332 340 335 333 342 341 334 nan nan nan
nan nan nan nan nan nan nan nan nan nan nan nan 22 13 359 19 18 4 359 357 344 340 346 346 342 345 346 344 273 224 220 208 222 236 257 324 333 324 318 333 333 338 338 348 344 nan nan nan nan
nan nan nan nan nan nan nan nan nan nan nan nan nan nan 8 17 nan nan 11 3 357 348 343 338 332 335 333 329 318 318 282 276 254 269 281 314 317 319 319 330 337 329 332 328 340 nan nan nan nan
nan nan nan nan nan nan nan nan nan nan nan nan nan nan nan nan nan nan 15 21 10 348 338 337 332 330 329 329 322 307 279 277 264 270 290 312 319 323 338 340 328 318 314 320 326 nan nan nan nan
nan nan nan nan nan nan nan nan nan nan nan nan nan nan nan nan nan nan nan nan 359 343 330 322 319 313 315 325 321 319 309 288 275 275 285 299 314 326 335 337 329 314 305 317 nan nan nan nan nan
nan nan nan nan nan nan nan nan nan nan nan nan nan nan nan nan nan nan nan nan 347 340 328 315 316 315 303 310 314 314 308 296 289 288 292 292 301 282 329 317 328 316 321 324 nan nan nan nan nan
nan nan nan nan nan nan nan nan nan nan nan nan nan nan nan nan nan nan nan 351 346 348 339 328 319 315 308 305 307 300 298 282 277 290 287 300 306 309 312 335 335 321 331 337 nan nan nan nan nan
nan nan nan nan nan nan nan nan nan nan nan nan nan nan nan 343 nan 2 nan 351 1 353 347 336 328 328 318 314 301 299 291 289 286 292 295 294 279 248 348 334 316 336 339 331 338 336 nan nan nan
nan nan nan nan nan nan nan nan nan nan nan nan nan nan nan 336 349 355 346 326 359 353 345 336 334 338 337 334 317 299 295 288 279 279 289 290 109 356 345 329 338 337 333 341 343 347 349 nan 3
nan nan nan nan nan nan nan nan nan nan nan nan nan nan nan 330 335 338 334 337 333 344 334 331 327 331 333 337 334 325 299 293 277 260 242 247 345 354 358 352 339 342 340 357 0 358 353 358 nan
nan nan nan nan nan nan nan nan nan nan nan nan nan 286 321 313 314 314 317 318 317 341 328 328 322 322 331 338 340 342 326 305 208 168 195 248 342 358 354 350 355 0 0 359 4 4 6 5 nan